Time,TemperatureF,DewpointF,PressureIn,WindDirection,WindDirectionDegrees,WindSpeedMPH,WindSpeedGustMPH,Humidity,HourlyPrecipIn,Conditions,Clouds,dailyrainin,SoftwareType,DateUTC
2013-10-14 00:12:00,49.2,45.0,30.40,ENE,74,0.0,1.0,86,0.00,,,0.00,weatherlink.com 1.10,2013-10-14 04:12:00,
2013-10-14 00:27:00,48.8,45.0,30.40,ENE,74,0.0,1.0,86,0.00,,,0.00,weatherlink.com 1.10,2013-10-14 04:27:00,
2013-10-14 00:42:00,48.3,44.0,30.39,ENE,74,0.0,1.0,86,0.00,,,0.00,weatherlink.com 1.10,2013-10-14 04:42:00,
2013-10-14 00:57:00,47.8,44.0,30.39,ENE,74,0.0,0.0,86,0.00,,,0.00,weatherlink.com 1.10,2013-10-14 04:57:00,
2013-10-14 01:12:00,47.3,43.0,30.40,ENE,74,0.0,0.0,86,0.00,,,0.00,weatherlink.com 1.10,2013-10-14 05:12:00,
2013-10-14 01:27:00,46.9,43.0,30.39,ENE,74,0.0,0.0,87,0.00,,,0.00,weatherlink.com 1.10,2013-10-14 05:27:00,
2013-10-14 01:42:00,46.6,43.0,30.39,ENE,76,0.0,3.0,87,0.00,,,0.00,weatherlink.com 1.10,2013-10-14 05:42:00,
2013-10-14 01:57:00,46.7,43.0,30.38,ENE,75,0.0,0.0,88,0.00,,,0.00,weatherlink.com 1.10,2013-10-14 05:57:00,
2013-10-14 02:13:00,46.4,43.0,30.38,ENE,76,0.0,0.0,88,0.00,,,0.00,weatherlink.com 1.10,2013-10-14 06:13:00,
2013-10-14 02:28:00,46.0,43.0,30.38,ENE,75,0.0,0.0,88,0.00,,,0.00,weatherlink.com 1.10,2013-10-14 06:28:00,
2013-10-14 02:43:00,45.6,42.0,30.38,ENE,75,0.0,0.0,88,0.00,,,0.00,weatherlink.com 1.10,2013-10-14 06:43:00,
2013-10-14 02:58:00,45.6,42.0,30.37,ENE,76,0.0,0.0,88,0.00,,,0.00,weatherlink.com 1.10,2013-10-14 06:58:00,
2013-10-14 03:13:00,45.3,42.0,30.37,ENE,76,0.0,0.0,88,0.00,,,0.00,weatherlink.com 1.10,2013-10-14 07:13:00,
2013-10-14 03:28:00,44.9,42.0,30.37,ENE,75,0.0,0.0,88,0.00,,,0.00,weatherlink.com 1.10,2013-10-14 07:28:00,
2013-10-14 03:43:00,44.7,42.0,30.38,ENE,76,0.0,0.0,89,0.00,,,0.00,weatherlink.com 1.10,2013-10-14 07:43:00,
2013-10-14 03:58:00,44.7,42.0,30.38,ENE,76,0.0,0.0,89,0.00,,,0.00,weatherlink.com 1.10,2013-10-14 07:58:00,
2013-10-14 04:13:00,44.6,42.0,30.38,ENE,76,0.0,0.0,89,0.00,,,0.00,weatherlink.com 1.10,2013-10-14 08:13:00,
2013-10-14 04:28:00,44.4,41.0,30.37,ENE,75,0.0,0.0,89,0.00,,,0.00,weatherlink.com 1.10,2013-10-14 08:28:00,
2013-10-14 04:43:00,44.2,41.0,30.38,ENE,75,0.0,0.0,89,0.00,,,0.00,weatherlink.com 1.10,2013-10-14 08:43:00,
2013-10-14 04:58:00,43.9,41.0,30.38,ENE,75,0.0,0.0,89,0.00,,,0.00,weatherlink.com 1.10,2013-10-14 08:58:00,
2013-10-14 05:13:00,43.8,41.0,30.38,ENE,75,0.0,0.0,89,0.00,,,0.00,weatherlink.com 1.10,2013-10-14 09:13:00,
2013-10-14 05:28:00,43.6,41.0,30.38,ENE,76,0.0,0.0,89,0.00,,,0.00,weatherlink.com 1.10,2013-10-14 09:28:00,
2013-10-14 05:43:00,43.2,40.0,30.38,ENE,76,0.0,0.0,89,0.00,,,0.00,weatherlink.com 1.10,2013-10-14 09:43:00,
2013-10-14 05:58:00,43.1,40.0,30.38,ENE,76,0.0,0.0,90,0.00,,,0.00,weatherlink.com 1.10,2013-10-14 09:58:00,
2013-10-14 06:13:00,42.9,40.0,30.38,ENE,76,0.0,0.0,89,0.00,,,0.00,weatherlink.com 1.10,2013-10-14 10:13:00,
2013-10-14 06:28:00,42.8,40.0,30.38,ENE,76,0.0,0.0,90,0.00,,,0.00,weatherlink.com 1.10,2013-10-14 10:28:00,
2013-10-14 06:43:00,42.8,40.0,30.38,ENE,76,0.0,0.0,90,0.00,,,0.00,weatherlink.com 1.10,2013-10-14 10:43:00,
2013-10-14 06:58:00,42.5,40.0,30.38,ENE,76,0.0,0.0,90,0.00,,,0.00,weatherlink.com 1.10,2013-10-14 10:58:00,
2013-10-14 07:13:00,42.4,40.0,30.38,ENE,76,0.0,0.0,90,0.00,,,0.00,weatherlink.com 1.10,2013-10-14 11:13:00,
2013-10-14 07:28:00,42.3,40.0,30.38,ENE,75,0.0,0.0,90,0.00,,,0.00,weatherlink.com 1.10,2013-10-14 11:28:00,
2013-10-14 07:43:00,42.8,40.0,30.39,ENE,76,0.0,0.0,90,0.00,,,0.00,weatherlink.com 1.10,2013-10-14 11:43:00,
2013-10-14 07:58:00,43.7,41.0,30.39,ENE,75,0.0,0.0,91,0.00,,,0.00,weatherlink.com 1.10,2013-10-14 11:58:00,
2013-10-14 08:13:00,44.8,42.0,30.39,ENE,76,0.0,0.0,91,0.00,,,0.00,weatherlink.com 1.10,2013-10-14 12:13:00,
2013-10-14 08:28:00,46.1,44.0,30.39,ENE,75,0.0,0.0,91,0.00,,,0.00,weatherlink.com 1.10,2013-10-14 12:28:00,
2013-10-14 08:43:00,46.9,45.0,30.39,ENE,75,0.0,1.0,91,0.00,,,0.00,weatherlink.com 1.10,2013-10-14 12:43:00,
2013-10-14 08:58:00,47.8,45.0,30.39,North,355,0.0,2.0,91,0.00,,,0.00,weatherlink.com 1.10,2013-10-14 12:58:00,
2013-10-14 09:13:00,49.0,47.0,30.39,North,355,0.0,1.0,91,0.00,,,0.00,weatherlink.com 1.10,2013-10-14 13:13:00,
2013-10-14 09:28:00,50.1,48.0,30.39,North,355,0.0,1.0,91,0.00,,,0.00,weatherlink.com 1.10,2013-10-14 13:28:00,
2013-10-14 09:43:00,52.7,50.0,30.40,North,355,0.0,1.0,90,0.00,,,0.00,weatherlink.com 1.10,2013-10-14 13:43:00,
2013-10-14 09:58:00,56.2,50.0,30.39,North,355,0.0,1.0,80,0.00,,,0.00,weatherlink.com 1.10,2013-10-14 13:58:00,
2013-10-14 10:13:00,59.2,49.0,30.39,North,355,0.0,1.0,69,0.00,,,0.00,weatherlink.com 1.10,2013-10-14 14:13:00,
2013-10-14 10:28:00,60.4,47.0,30.39,South,171,0.0,6.0,62,0.00,,,0.00,weatherlink.com 1.10,2013-10-14 14:28:00,
2013-10-14 10:43:00,61.1,49.0,30.38,South,170,0.0,4.0,64,0.00,,,0.00,weatherlink.com 1.10,2013-10-14 14:43:00,
2013-10-14 10:58:00,62.5,49.0,30.37,SSW,192,0.0,1.0,62,0.00,,,0.00,weatherlink.com 1.10,2013-10-14 14:58:00,
2013-10-14 11:13:00,62.7,48.0,30.37,WSW,249,0.0,2.0,60,0.00,,,0.00,weatherlink.com 1.10,2013-10-14 15:13:00,
2013-10-14 11:28:00,62.9,48.0,30.37,WSW,245,0.0,2.0,58,0.00,,,0.00,weatherlink.com 1.10,2013-10-14 15:28:00,
2013-10-14 11:44:00,62.3,48.0,30.36,SW,215,2.0,2.0,59,0.00,,,0.00,weatherlink.com 1.10,2013-10-14 15:44:00,
2013-10-14 11:59:00,64.2,48.0,30.35,SE,136,0.0,2.0,57,0.00,,,0.00,weatherlink.com 1.10,2013-10-14 15:59:00,
2013-10-14 12:14:00,66.0,49.0,30.35,SE,129,0.0,3.0,55,0.00,,,0.00,weatherlink.com 1.10,2013-10-14 16:14:00,
2013-10-14 12:29:00,67.0,51.0,30.34,NNE,13,0.0,2.0,56,0.00,,,0.00,weatherlink.com 1.10,2013-10-14 16:29:00,
2013-10-14 12:44:00,68.6,49.0,30.33,West,268,0.0,1.0,50,0.00,,,0.00,weatherlink.com 1.10,2013-10-14 16:44:00,
2013-10-14 12:59:00,69.0,48.0,30.32,West,269,0.0,1.0,48,0.00,,,0.00,weatherlink.com 1.10,2013-10-14 16:59:00,
2013-10-14 13:14:00,68.9,50.0,30.32,South,187,0.0,3.0,52,0.00,,,0.00,weatherlink.com 1.10,2013-10-14 17:14:00,
2013-10-14 13:29:00,68.4,48.0,30.31,SE,137,0.0,5.0,48,0.00,,,0.00,weatherlink.com 1.10,2013-10-14 17:29:00,
2013-10-14 13:44:00,68.6,48.0,30.30,WSW,251,0.0,2.0,48,0.00,,,0.00,weatherlink.com 1.10,2013-10-14 17:44:00,
2013-10-14 13:59:00,69.9,50.0,30.30,West,259,0.0,5.0,50,0.00,,,0.00,weatherlink.com 1.10,2013-10-14 17:59:00,
2013-10-14 14:14:00,70.0,49.0,30.29,South,178,0.0,4.0,47,0.00,,,0.00,weatherlink.com 1.10,2013-10-14 18:14:00,
2013-10-14 14:29:00,70.1,49.0,30.30,East,80,0.0,3.0,48,0.00,,,0.00,weatherlink.com 1.10,2013-10-14 18:29:00,
2013-10-14 14:44:00,68.9,47.0,30.29,SE,143,0.0,5.0,45,0.00,,,0.00,weatherlink.com 1.10,2013-10-14 18:44:00,
2013-10-14 14:59:00,68.5,47.0,30.29,ENE,78,0.0,2.0,47,0.00,,,0.00,weatherlink.com 1.10,2013-10-14 18:59:00,
2013-10-14 15:14:00,69.0,48.0,30.28,ESE,111,0.0,3.0,48,0.00,,,0.00,weatherlink.com 1.10,2013-10-14 19:14:00,
2013-10-14 15:29:00,69.6,47.0,30.28,SSE,167,0.0,1.0,45,0.00,,,0.00,weatherlink.com 1.10,2013-10-14 19:29:00,
2013-10-14 15:44:00,69.3,49.0,30.28,SE,138,2.0,2.0,48,0.00,,,0.00,weatherlink.com 1.10,2013-10-14 19:44:00,
2013-10-14 15:59:00,68.2,47.0,30.27,East,91,0.0,3.0,47,0.00,,,0.00,weatherlink.com 1.10,2013-10-14 19:59:00,
2013-10-14 16:14:00,66.2,47.0,30.27,South,183,0.0,4.0,50,0.00,,,0.00,weatherlink.com 1.10,2013-10-14 20:14:00,
2013-10-14 16:44:00,64.5,47.0,30.27,SE,129,0.0,0.0,53,0.00,,,0.00,weatherlink.com 1.10,2013-10-14 20:44:00,
2013-10-14 16:59:00,64.2,46.0,30.27,South,190,0.0,2.0,52,0.00,,,0.00,weatherlink.com 1.10,2013-10-14 20:59:00,
2013-10-14 17:14:00,63.2,49.0,30.27,East,93,2.0,4.0,61,0.00,,,0.00,weatherlink.com 1.10,2013-10-14 21:14:00,
2013-10-14 17:29:00,61.8,50.0,30.28,South,180,0.0,1.0,65,0.00,,,0.00,weatherlink.com 1.10,2013-10-14 21:29:00,
2013-10-14 17:44:00,60.7,50.0,30.29,SW,215,0.0,4.0,67,0.00,,,0.00,weatherlink.com 1.10,2013-10-14 21:44:00,
2013-10-14 17:59:00,59.5,49.0,30.29,SE,144,0.0,1.0,69,0.00,,,0.00,weatherlink.com 1.10,2013-10-14 21:59:00,
2013-10-14 18:14:00,58.5,49.0,30.29,SSW,207,0.0,2.0,71,0.00,,,0.00,weatherlink.com 1.10,2013-10-14 22:14:00,
2013-10-14 18:29:00,57.4,49.0,30.29,SSW,207,0.0,0.0,74,0.00,,,0.00,weatherlink.com 1.10,2013-10-14 22:29:00,
2013-10-14 18:44:00,56.7,49.0,30.30,SSW,207,0.0,0.0,75,0.00,,,0.00,weatherlink.com 1.10,2013-10-14 22:44:00,
2013-10-14 18:59:00,56.0,49.0,30.30,SSW,207,0.0,0.0,76,0.00,,,0.00,weatherlink.com 1.10,2013-10-14 22:59:00,
2013-10-14 19:14:00,55.1,48.0,30.30,SSW,207,0.0,0.0,78,0.00,,,0.00,weatherlink.com 1.10,2013-10-14 23:14:00,
2013-10-14 19:29:00,54.6,48.0,30.30,SSW,207,0.0,0.0,78,0.00,,,0.00,weatherlink.com 1.10,2013-10-14 23:29:00,
2013-10-14 19:44:00,54.2,48.0,30.30,SSW,207,0.0,0.0,79,0.00,,,0.00,weatherlink.com 1.10,2013-10-14 23:44:00,
2013-10-14 19:59:00,53.7,47.0,30.31,SSW,207,0.0,0.0,79,0.00,,,0.00,weatherlink.com 1.10,2013-10-14 23:59:00,
2013-10-14 20:14:00,53.3,47.0,30.31,SSW,207,0.0,0.0,80,0.00,,,0.00,weatherlink.com 1.10,2013-10-15 00:14:00,
2013-10-14 20:29:00,53.0,47.0,30.31,SSW,207,0.0,0.0,81,0.00,,,0.00,weatherlink.com 1.10,2013-10-15 00:29:00,
2013-10-14 20:44:00,52.7,47.0,30.31,SSW,207,0.0,0.0,82,0.00,,,0.00,weatherlink.com 1.10,2013-10-15 00:44:00,
2013-10-14 20:59:00,52.6,48.0,30.30,SSW,207,0.0,0.0,83,0.00,,,0.00,weatherlink.com 1.10,2013-10-15 00:59:00,
2013-10-14 21:14:00,52.1,47.0,30.29,SSW,207,0.0,0.0,83,0.00,,,0.00,weatherlink.com 1.10,2013-10-15 01:14:00,
2013-10-14 21:29:00,51.6,47.0,30.30,SSW,207,0.0,0.0,83,0.00,,,0.00,weatherlink.com 1.10,2013-10-15 01:29:00,
2013-10-14 21:44:00,51.3,47.0,30.30,SSW,207,0.0,0.0,84,0.00,,,0.00,weatherlink.com 1.10,2013-10-15 01:44:00,
2013-10-14 21:59:00,51.0,46.0,30.30,SSW,207,0.0,0.0,84,0.00,,,0.00,weatherlink.com 1.10,2013-10-15 01:59:00,
2013-10-14 22:14:00,50.6,46.0,30.30,SSW,207,0.0,0.0,84,0.00,,,0.00,weatherlink.com 1.10,2013-10-15 02:14:00,
2013-10-14 22:29:00,50.4,46.0,30.30,SSW,207,0.0,0.0,85,0.00,,,0.00,weatherlink.com 1.10,2013-10-15 02:29:00,
2013-10-14 22:44:00,50.3,46.0,30.30,SSW,207,0.0,0.0,86,0.00,,,0.00,weatherlink.com 1.10,2013-10-15 02:44:00,
2013-10-14 22:59:00,50.1,46.0,30.30,SSW,207,0.0,0.0,86,0.00,,,0.00,weatherlink.com 1.10,2013-10-15 02:59:00,
2013-10-14 23:14:00,49.7,46.0,30.30,SSW,207,0.0,0.0,86,0.00,,,0.00,weatherlink.com 1.10,2013-10-15 03:14:00,
2013-10-14 23:29:00,49.5,46.0,30.30,SSW,207,0.0,0.0,86,0.00,,,0.00,weatherlink.com 1.10,2013-10-15 03:29:00,
2013-10-14 23:44:00,49.3,45.0,30.30,SSW,207,0.0,0.0,86,0.00,,,0.00,weatherlink.com 1.10,2013-10-15 03:44:00,
2013-10-14 23:59:00,48.8,45.0,30.29,SSW,207,0.0,0.0,86,0.00,,,0.00,weatherlink.com 1.10,2013-10-15 03:59:00,